STARLINK-35640, 66536

Orbit data source: Space-Track

STARLINK-35640, 66536 is a payload satellite owned by SpaceX/Seattle (US) in LEO that was launched on Wed, 19 Nov 2025 UTC via an FALCON 9 launch vehicle from the Air Force Eastern Test Range (AFETR). Payload-class satellites include a variety of spacecraft equipped with specific instruments for various scientific and technological missions. These include communications satellites like Starlink; space stations such as the ISS; scientific satellites like the Hubble; Earth observation satellites from companies like Planet Labs, Umbra, and HawkEye 360; GPS; miniature CubeSats for education and research; and military/defense satellites.

Loading next visibility...
Identifier
66536, 2025-265W
Orbit
LEO
Country
Flag of USUS
Related business
Manufacturer
SpaceX/Seattle
Mission
Operational Commercial Communications
Bus & Motor
STARLINK V2MO, Unknown motor
Mass
575 kg wet, ~530 kg dry
Launch date (UTC)
2025-11-19 (7 months ago)
Launch vehicle
FALCON 9
Launch site
Air Force Eastern Test Range (AFETR)
Object type
Payload
Rocket body
Debris
Shape & HBR
Box + 2 Pan, 17.7 m
Radar Cross Section
36.964 m², Large (>1 m²)

Expand to show TLE details & history
Last TLE update: 19 hours ago

TLE from 19 hours ago
0 STARLINK-35640
1 66536U 25265W   26171.09575703  .00014264  00000-0  52666-3 0  9994
2 66536  43.0023  59.7245 0001376 276.1971  83.8724 15.27593561 32777
Epoch: 2026-06-20T02:17Z
TLE epoch observation values (Epoch: 2026-06-20T02:17:53.407Z)
Latitude
-0.00001°
Longitude
116.93667°
Altitude
482.684 km
Speed
7.626 km/s
True Right ascension
03h 58m 53s
True Declination
0° 00' 00"
Sunlit
Object was in daylight at epoch
Visualization orbit readout
Latitude
Unknown
Longitude
Unknown
Altitude
Unknown
Speed
Unknown
Apparent Right ascension
Unknown
Apparent Declination
Unknown
Sunlit
N/A
Visualization observer readout
Local Sidereal Time
08:32:47
Azimuth
Unknown
Elevation
Unknown
Doppler factor
Unknown
Orbital elements
Apogee altitude
485.898 km
Perigee altitude
484.009 km
Semi-major axis
6,863.09 km
Eccentricity
0.00014
Inclination
43.0023°
RAAN
59.7245°
Arg. of periapsis
276.1971°
True anomaly
83.88808°
Mean anomaly
83.8724°
Eccentric anomaly
83.88024°
Mean motion
3.81736 °/min
Orbital period
94.31 mins
BSTAR
0.00052666
Loading maneuver chart data...
Computing Atmospheric mass density...
Loading historical data...
Loading historical data...
Loading historical data...
Loading historical data...
Loading historical data...
Loading historical data...
Loading historical data...

Documentation

Showing up to 5 results
|